Regional Weather Roundup
Issued by NWS Glasgow, MT

Home | Current Version | Previous Version | Text Only | Print | Product List | Glossary On
Versions: 1 2 3 4 5 6 7 8 9 10 11 12 13 14 15 16 17 18 19 20 21 22 23 24 25 26 27 28 29 30 31 32 33 34 35 36 37 38 39 40 41 42 43 44 45 46 47 48 49 50
000
ASUS45 KGGW 200915
RWRGGW
HOURLY WEATHER ROUNDUP FOR NORTHEAST MONTANA
NATIONAL WEATHER SERVICE GLASGOW MONTANA
300 AM MDT MON OCT 20 2014

NOTE: "FAIR" INDICATES FEW OR NO CLOUDS BELOW 12,000 FEET WITH NO
SIGNIFICANT WEATHER AND/OR OBSTRUCTIONS TO VISISBILITY.

NORTHEAST MONTANA


CITY           SKY/WX    TMP DP  RH WIND       PRES   REMARKS
GLASGOW        CLEAR     45  36  70 E15       29.89F
PLENTYWOOD       N/A     49  36  61 SE7         N/A
WOLF POINT     CLEAR     37  33  85 NE3       29.94F
JORDAN           N/A     45  36  70 CALM      29.92S
WINNETT          N/A     48  34  58 SE1         N/A
SIDNEY         CLEAR     36  34  93 CALM      30.00S
GLENDIVE       CLEAR     45  34  65 SW5       30.00S
MALTA            N/A     51  40  65 W2          N/A
SCOBEY           N/A     44  34  67 CALM      29.92S

FORT PECK REPORTS


CITY           SKY/WX    TMP DP  RH WIND       PRES   REMARKS
FORT PECK        N/A     56  40  55 SE12        N/A
THE PINES        N/A     53  42  66 S7          N/A

SOUTHEAST MONTANA


CITY           SKY/WX    TMP DP  RH WIND       PRES   REMARKS
BILLINGS       CLEAR     49  32  52 SW14      29.95S
MILES CITY     CLEAR     54  37  52 SE15      29.96F
BAKER          CLEAR     43  34  70 SE7       30.02S
LIVINGSTON     CLEAR     40  27  59 CALM      30.00S

CENTRAL MONTANA


CITY           SKY/WX    TMP DP  RH WIND       PRES   REMARKS
HAVRE          CLEAR     36  34  92 CALM      29.85R
LEWISTOWN      CLEAR     41  30  65 SE7       29.94S
GREAT FALLS    CLEAR     54  29  38 SW14      29.87F
CUT BANK       CLEAR     45  29  53 CALM      29.85S
HELENA         CLEAR     42  34  73 CALM      29.95S
BUTTE          CLEAR     32  26  78 CALM      30.05R
BOZEMAN        CLEAR     35  28  75 SE6       30.00S

WESTERN MONTANA


CITY           SKY/WX    TMP DP  RH WIND       PRES   REMARKS
MISSOULA       CLEAR     38  36  92 CALM      29.94R
KALISPELL      NOT AVBL

NORTH DAKOTA


CITY           SKY/WX    TMP DP  RH WIND       PRES   REMARKS
WILLISTON      CLEAR     34  31  88 CALM      29.99S
DICKINSON      CLEAR     39  33  79 S10       30.01F
MINOT          MOCLDY    45  34  65 SW12      30.00S
BISMARCK       MOCLDY    32  31  96 CALM      30.05S

SOUTHERN SASKATCHEWAN


CITY           SKY/WX    TMP DP  RH WIND       PRES   REMARKS
REGINA         CLEAR     37  36  93 E10       29.93S
ESTEVAN        CLEAR     39  36  87 SE6       29.98S
SWIFT CURRENT  CLEAR     48  41  76 S17       29.81F




USA.gov is the U.S. government's official web portal to all federal, state and local government web resources and services.